Weather History for Kahului, HI

Change the Weather History Date:

Monday, November 26, 2012

  Actual Average Record
Temperature  
Mean Temperature 73 °F 75 °F  
Max Temperature 78 °F 83 °F 90 °F (1968)
Min Temperature 68 °F 67 °F 57 °F (1985)
Degree Days  
Heating Degree Days 0 0  
Month to date heating degree days 0 0  
Since 1 July heating degree days 0 0  
Cooling Degree Days 8 10  
Month to date cooling degree days 275 291  
Year to date cooling degree days 3617 3667  
Growing Degree Days 23 (Base 50)    
Moisture  
Dew Point 64 °F    
Average Humidity 74    
Maximum Humidity 93    
Minimum Humidity 54    
Precipitation  
Precipitation 0.05 in 0.09 in 2.18 in (1970)
Month to date precipitation 0.23 1.81  
Year to date precipitation 4.94 14.09  
Snow  
Snow 0.00 in - - ()
Month to date snowfall 0.0  
Since 1 July snowfall 0.0  
Since 1 September snowfall 0.0  
Snow Depth 0.00 in    
Sea Level Pressure  
Sea Level Pressure 30.04 in    
Wind  
Wind Speed 11 mph (NE)    
Max Wind Speed 23 mph    
Max Gust Speed 26 mph    
Visibility 9 miles    
Events Rain    
T = Trace of Precipitation, MM = Missing Value Source: NWS Daily Summary

Daily Weather History Graph

Daily Weather History Graph

Search for Another Location

Airport:

Trip Planner

Search our weather history database for the weather conditions in past years. The results will help you decide how hot, cold, wet, or windy it might be!

Date:

Astronomy

Nov. 26, 2012 Rise Set
Actual Time 6:43 AM HST 5:43 PM HST
Civil Twilight 6:19 AM HST 6:06 PM HST
Nautical Twilight 5:52 AM HST 6:34 PM HST
Astronomical Twilight 5:25 AM HST 7:01 PM HST
Moon 4:37 PM HST (11/26) 5:10 AM HST (11/26)
Length of Visible Light 11h 47m
Length of Day
10h 59m
Waxing Gibbous, 97% of the Moon is Illuminated
Nov 26
Waxing Gibbous
Nov 28
Full
Dec 6
Last Quarter
Dec 12
New
Dec 19
First Quarter

Hourly Weather History & Observations

Time (HST) Temp. Dew Point Humidity Pressure Visibility Wind Dir Wind Speed Gust Speed Precip Events Conditions
12:54 AM 72.0 °F 64.0 °F 76% 30.01 in 10.0 mi ENE 5.8 mph - N/A   Clear
1:54 AM 71.1 °F 64.0 °F 78% 30.00 in 10.0 mi NE 5.8 mph - N/A   Partly Cloudy
2:54 AM 71.1 °F 64.0 °F 78% 29.99 in 10.0 mi NE 6.9 mph - N/A   Clear
3:54 AM 70.0 °F 63.0 °F 78% 29.99 in 10.0 mi ENE 5.8 mph - N/A   Scattered Clouds
4:54 AM 69.1 °F 66.0 °F 90% 30.00 in 10.0 mi East 6.9 mph - 0.01 in Rain Light Rain
5:54 AM 69.1 °F 64.9 °F 87% 30.01 in 10.0 mi NE 13.8 mph - 0.00 in Rain Light Rain
6:54 AM 68.0 °F 66.0 °F 93% 30.04 in 2.0 mi ENE 10.4 mph - 0.01 in Rain Light Rain
7:04 AM 68.0 °F 66.2 °F 94% 30.03 in 2.0 mi East 9.2 mph - 0.01 in Rain Light Rain
7:39 AM 69.8 °F 66.2 °F 88% 30.04 in 9.0 mi East 5.8 mph - 0.03 in Rain Light Rain
7:54 AM 69.1 °F 66.9 °F 93% 30.05 in 10.0 mi NE 8.1 mph - 0.03 in   Overcast
8:54 AM 72.0 °F 64.9 °F 78% 30.07 in 10.0 mi East 12.7 mph 18.4 mph 0.00 in   Overcast
9:54 AM 73.9 °F 64.9 °F 73% 30.07 in 10.0 mi NE 9.2 mph - N/A   Overcast
10:54 AM 75.0 °F 64.9 °F 71% 30.06 in 10.0 mi NE 12.7 mph - 0.00 in   Overcast
11:54 AM 75.9 °F 64.0 °F 67% 30.05 in 10.0 mi East 12.7 mph - 0.00 in   Overcast
12:54 PM 75.9 °F 63.0 °F 64% 30.03 in 10.0 mi NE 13.8 mph - N/A   Overcast
1:54 PM 77.0 °F 62.1 °F 60% 30.01 in 10.0 mi NE 11.5 mph - N/A   Overcast
2:54 PM 78.1 °F 61.0 °F 56% 30.00 in 10.0 mi NE 16.1 mph 21.9 mph N/A   Mostly Cloudy
3:54 PM 75.0 °F 64.0 °F 69% 30.01 in 10.0 mi NE 19.6 mph - 0.00 in   Mostly Cloudy
4:54 PM 75.0 °F 62.1 °F 64% 30.02 in 10.0 mi NNE 18.4 mph - 0.00 in   Scattered Clouds
5:54 PM 72.0 °F 64.0 °F 76% 30.04 in 10.0 mi NE 19.6 mph - N/A   Scattered Clouds
6:54 PM 71.1 °F 64.9 °F 81% 30.06 in 10.0 mi NNE 12.7 mph - 0.00 in Rain Light Rain
7:54 PM 70.0 °F 63.0 °F 78% 30.08 in 10.0 mi NE 6.9 mph - 0.00 in   Scattered Clouds
8:54 PM 70.0 °F 63.0 °F 78% 30.10 in 10.0 mi NE 8.1 mph - N/A   Scattered Clouds
9:54 PM 70.0 °F 63.0 °F 78% 30.10 in 10.0 mi NE 8.1 mph - N/A   Scattered Clouds
10:54 PM 69.1 °F 62.1 °F 78% 30.10 in 10.0 mi NE 5.8 mph - N/A   Scattered Clouds
11:54 PM 70.0 °F 62.1 °F 76% 30.10 in 10.0 mi NNE 6.9 mph - N/A   Mostly Cloudy